[[{"header":{"parameterUnit":"m.s-1","parameterCategory":1,"la1":30.2991,"la2":30.254,"lo1":-89.0895,"lo2":-89.0444,"dy":0.0017,"dx":0.0017,"nx":28,"ny":28,"refTime":"2024-08-27T09:00:00:Z","depth":0,"parameterNumber":2,"parameterNumberName":"U-component_of_WINDS"},"data":[0,0,0,0,0,0,0,0,0,0,0,0,0,0,0,0,0,0,0,0,0,0,0,0,0,0,0,0,0,0,0,0,0,0,0,0,0,0,0,0,0,0,0,0,0,0,0,0,0,0,0,0,0,0,0,0,0,0,-1.7357,-1.7358,0,-1.7413,-1.7414,-1.7415,-1.7367,-1.7365,-1.7363,-1.7361,-1.7419,-1.7422,-1.7425,0,0,0,0,0,0,0,0,0,0,0,0,0,-1.7208,-1.7211,-1.7357,-1.7358,-1.7359,-1.7413,-1.7414,-1.7415,-1.7367,-1.7365,-1.7362,-1.736,-1.7417,-1.7421,-1.7425,0,0,0,0,0,0,0,0,0,0,0,0,0,-1.727,-1.7212,-1.7357,-1.7341,-1.7341,-1.7413,-1.7414,-1.7415,-1.7368,-1.7365,-1.7362,-1.7359,-1.7416,-1.7421,-1.7426,-1.7517,0,0,-1.7442,-1.7444,0,0,0,0,0,0,0,0,-1.7266,-1.7275,-1.7343,-1.7343,-1.7342,-1.738,-1.7383,-1.7449,-1.7368,-1.7357,-1.7361,-1.7357,-1.7408,-1.7414,-1.7431,-1.752,-1.7522,-1.7442,-1.7445,-1.7447,-1.7449,0,0,0,0,0,0,0,-1.7262,-1.7273,-1.7379,-1.7344,-1.7343,-1.7331,-1.7337,-1.7395,-1.7399,-1.7358,-1.7355,-1.7362,-1.7407,-1.7426,-1.7432,-1.7523,-1.7442,-1.7446,-1.7449,-1.7451,-1.7689,-1.7692,0,0,0,0,0,0,-1.7259,-1.7269,-1.7378,-1.7381,-1.7296,-1.7337,-1.7343,-1.7371,-1.7398,-1.7399,-1.7365,-1.736,-1.7419,-1.7426,-1.7434,-1.7542,-1.7447,-1.7452,-1.7455,-1.7686,-1.769,-1.7693,0,0,0,0,0,0,-1.7256,-1.727,-1.7375,-1.7324,-1.7337,-1.7342,-1.7374,-1.7374,-1.7392,-1.7403,-1.7403,-1.7383,-1.7417,-1.7426,-1.7497,-1.7543,-1.7454,-1.7459,-1.7682,-1.7687,-1.7692,-1.7759,0,0,0,0,0,0,-1.7252,-1.7269,-1.7304,-1.7326,-1.734,-1.7438,-1.7377,-1.7377,-1.7401,-1.7395,-1.742,-1.7422,-1.7415,-1.7489,-1.7502,-1.7548,-1.7463,-1.7678,-1.7684,-1.769,-1.7753,-1.7766,-1.7777,0,0,0,0,0,-1.7247,-1.732,-1.7306,-1.7319,-1.7383,-1.7441,-1.7449,-1.744,-1.7405,-1.744,-1.7447,-1.7421,-1.7536,-1.7497,-1.751,-1.7559,-1.7675,-1.7682,-1.769,-1.7747,-1.7763,-1.7776,0,0,0,0,0,0,-1.7304,-1.7323,-1.7307,-1.7389,-1.7414,-1.7432,-1.7476,-1.7457,-1.7491,-1.7484,-1.7472,-1.7478,-1.7552,-1.7562,-1.7519,-1.7649,-1.76,-1.761,-1.7639,-1.7654,-1.7666,-1.7662,-1.7467,0,0,0,0,0,-1.7326,-1.7371,-1.7385,-1.7456,-1.7469,-1.7471,-1.7495,-1.7486,-1.7511,-1.7521,-1.7533,-1.7558,-1.76,-1.7627,-1.7666,-1.7754,-1.7759,-1.7794,-1.7806,-1.7816,-1.7825,-1.7872,-1.7888,-1.7717,-1.7717,-1.7717,0,0,-1.7372,-1.7388,-1.7417,-1.7468,-1.7486,-1.7533,-1.748,-1.7531,-1.7566,-1.7529,-1.7596,-1.7606,-1.7632,-1.7712,-1.7747,-1.7723,-1.7873,-1.7825,-1.7833,-1.7837,-1.7881,-1.7897,-1.7912,-1.7722,-1.7722,-1.7721,0,0,-1.748,-1.7496,-1.7558,-1.7576,-1.7604,-1.7604,-1.7619,-1.7641,-1.7646,-1.7713,-1.7686,-1.7727,-1.7799,-1.7819,-1.7839,-1.7954,-1.7932,-1.7967,-1.803,-1.8076,-1.8089,-1.8101,-1.8142,-1.8157,-1.7976,-1.7977,-1.7977,0,-1.7534,-1.7603,-1.7591,-1.7645,-1.7668,-1.7637,-1.7699,-1.7717,-1.7757,-1.7773,-1.7745,-1.7835,-1.7851,-1.7935,-1.7963,-1.798,-1.7996,-1.7964,-1.8088,-1.81,-1.8111,-1.815,-1.8166,-1.7981,-1.798,-1.798,-1.7979,0,-1.7667,-1.7716,-1.7762,-1.78,-1.7829,-1.7886,-1.7883,-1.7913,-1.7902,-1.7905,-1.7974,-1.7992,-1.8034,-1.8053,-1.8042,-1.8135,-1.8119,-1.809,-1.8041,-1.8132,-1.8168,-1.8183,-1.7987,-1.7985,-1.7984,-1.7983,0,0,-1.7813,-1.7844,-1.7861,-1.7878,-1.7906,-1.7943,-1.7999,-1.804,-1.8066,-1.8094,-1.8141,-1.8202,-1.8176,-1.8198,-1.8189,-1.823,-1.832,-1.8196,-1.8196,-1.8218,-1.8423,-1.8444,-1.8462,-1.8305,-1.8308,-1.831,-1.8421,0,-1.7922,-1.8019,-1.801,-1.8102,-1.8147,-1.8117,-1.8166,-1.8189,-1.8193,-1.8231,-1.8236,-1.828,-1.8242,-1.8255,-1.8294,-1.8301,-1.8361,-1.8292,-1.8348,-1.835,-1.8342,-1.8481,-1.8504,-1.8607,-1.8435,-1.8437,-1.8439,0,-1.8062,-1.8094,-1.8191,-1.8212,-1.823,-1.8274,-1.8311,-1.8348,-1.8373,-1.8373,-1.8399,-1.8383,-1.8439,-1.8388,-1.8465,-1.8419,-1.8441,-1.8448,-1.8452,-1.8457,-1.84,-1.8489,-1.864,-1.8656,-1.8461,-1.8459,-1.8458,0,-1.8158,-1.8226,-1.8293,-1.8308,-1.8334,-1.8366,-1.8378,-1.84,-1.8425,-1.8457,-1.8473,-1.8512,-1.8533,-1.8563,-1.8558,-1.8521,-1.8636,-1.8585,-1.8638,-1.8638,-1.8664,-1.8662,-1.882,-1.8678,-1.8678,-1.8678,-1.8677,0,-1.8281,-1.8341,-1.8336,-1.8377,-1.8444,-1.8433,-1.8499,-1.8508,-1.8527,-1.8569,-1.8546,-1.8586,-1.8577,-1.8617,-1.8613,-1.8678,-1.8687,-1.8689,-1.8687,-1.8691,-1.8691,-1.8706,-1.8698,-1.8682,-1.8681,-1.868,-1.8679,0,-1.8399,-1.8399,-1.8469,-1.8488,-1.8494,-1.8543,-1.8559,-1.8597,-1.86,-1.8653,-1.8665,-1.8669,-1.8715,-1.8713,-1.8764,-1.8762,-1.8841,-1.8831,-1.8833,-1.8831,-1.8884,-1.8879,-1.9057,-1.9079,-1.8923,-1.8924,-1.8925,0,-1.8478,-1.8523,-1.8547,-1.8574,-1.8588,-1.8631,-1.8656,-1.8648,-1.8675,-1.8706,-1.8741,-1.8785,-1.8819,-1.8893,-1.89,-1.8939,-1.893,-1.899,-1.8936,-1.8938,-1.8931,-1.8928,-1.8933,-1.9,-1.9002,-1.9004,-1.9005,0,-1.8617,-1.8614,-1.8652,-1.869,-1.872,-1.875,-1.8776,-1.8799,-1.8793,-1.8825,-1.8871,-1.8898,-1.895,-1.8994,-1.9031,-1.9043,-1.9024,-1.9022,-1.9036,-1.904,-1.904,-1.9041,-1.8862,-1.9018,-1.9016,-1.9015,-1.9015,-1.9014,-1.8718,-1.8757,-1.878,-1.8822,-1.8841,-1.8867,-1.8904,-1.8911,-1.8949,-1.8991,-1.8983,-1.9035,-1.9058,-1.9107,-1.9123,-1.9163,-1.9142,-1.9163,-1.9168,-1.9173,-1.9179,-1.9033,-1.917,-1.9169,-1.9169,-1.9169,-1.9169,0,-1.8856,-1.8869,-1.8908,-1.8946,-1.8979,-1.8957,-1.8986,-1.9015,-1.9061,-1.9084,-1.9118,-1.9171,-1.9213,-1.9224,-1.9264,-1.9294,-1.9286,-1.9305,-1.9302,-1.9306,-1.9196,-1.9179,-1.9311,-1.9311,-1.9311,-1.9311,-1.9311,-1.9311,-1.8931,-1.8996,-1.8996,-1.907,-1.9083,-1.9133,-1.9151,-1.9175,-1.9193,-1.9253,-1.9288,-1.9294,-1.9313,-1.9354,-1.9391,-1.9393,-1.9409,-1.9432,-1.943,-1.9328,-1.9313,-1.93,-1.9284,-1.9435,-1.9436,-1.9537,-1.9538,-1.9538]},{"header":{"parameterUnit":"m.s-1","parameterCategory":1,"la1":30.2991,"la2":30.254,"lo1":-89.0895,"lo2":-89.0444,"dy":0.0017,"dx":0.0017,"nx":28,"ny":28,"refTime":"2024-08-27T09:00:00:Z","depth":0,"parameterNumber":3,"parameterNumberName":"V-component_of_WINDS"},"data":[0,0,0,0,0,0,0,0,0,0,0,0,0,0,0,0,0,0,0,0,0,0,0,0,0,0,0,0,0,0,0,0,0,0,0,0,0,0,0,0,0,0,0,0,0,0,0,0,0,0,0,0,0,0,0,0,0,0,-1.1567,-1.1568,0,-1.1605,-1.1605,-1.1605,-1.1645,-1.1646,-1.1646,-1.1647,-1.1684,-1.1684,-1.1685,0,0,0,0,0,0,0,0,0,0,0,0,0,-1.1529,-1.1529,-1.1567,-1.1568,-1.1568,-1.1604,-1.1605,-1.1605,-1.1645,-1.1646,-1.1646,-1.1647,-1.1684,-1.1684,-1.1685,0,0,0,0,0,0,0,0,0,0,0,0,0,-1.1554,-1.153,-1.1567,-1.1592,-1.1595,-1.1604,-1.1605,-1.1606,-1.1645,-1.1646,-1.1647,-1.1647,-1.1683,-1.1684,-1.1685,-1.1672,0,0,-1.1687,-1.1687,0,0,0,0,0,0,0,0,-1.1552,-1.1555,-1.1588,-1.1591,-1.1594,-1.1621,-1.1605,-1.1628,-1.1645,-1.1626,-1.1647,-1.1648,-1.1662,-1.1665,-1.167,-1.1674,-1.1675,-1.1687,-1.1687,-1.1688,-1.1688,0,0,0,0,0,0,0,-1.1551,-1.1554,-1.1582,-1.1589,-1.1592,-1.1601,-1.1606,-1.161,-1.1639,-1.1628,-1.1631,-1.1635,-1.1664,-1.1669,-1.1671,-1.1676,-1.1687,-1.1687,-1.1688,-1.1688,-1.167,-1.1669,0,0,0,0,0,0,-1.1545,-1.1552,-1.1581,-1.1583,-1.1575,-1.1601,-1.1606,-1.1611,-1.1639,-1.1644,-1.1634,-1.1636,-1.1667,-1.167,-1.1672,-1.1658,-1.1688,-1.1688,-1.1689,-1.1671,-1.167,-1.1669,0,0,0,0,0,0,-1.1544,-1.1547,-1.1579,-1.1568,-1.1573,-1.1601,-1.1606,-1.1612,-1.1617,-1.1644,-1.1649,-1.1634,-1.1668,-1.1671,-1.1672,-1.166,-1.1689,-1.1689,-1.1672,-1.1671,-1.1669,-1.163,0,0,0,0,0,0,-1.1543,-1.1547,-1.1543,-1.1568,-1.1574,-1.1578,-1.1606,-1.1612,-1.1618,-1.1622,-1.1645,-1.165,-1.1669,-1.167,-1.1672,-1.1662,-1.169,-1.1673,-1.1671,-1.167,-1.1633,-1.1628,-1.1624,0,0,0,0,0,-1.1541,-1.153,-1.1542,-1.1545,-1.1569,-1.1578,-1.1581,-1.1604,-1.1617,-1.1613,-1.163,-1.1649,-1.1661,-1.167,-1.1673,-1.1662,-1.1674,-1.1672,-1.167,-1.1635,-1.1629,-1.1624,0,0,0,0,0,0,-1.1502,-1.1534,-1.1548,-1.1544,-1.1558,-1.1584,-1.1579,-1.1597,-1.1607,-1.161,-1.1637,-1.1642,-1.1639,-1.1651,-1.166,-1.165,-1.167,-1.1669,-1.1643,-1.1637,-1.1633,-1.1629,-1.169,0,0,0,0,0,-1.1493,-1.1498,-1.1525,-1.152,-1.1526,-1.1551,-1.1556,-1.1572,-1.1588,-1.1593,-1.1611,-1.1624,-1.1631,-1.1635,-1.1643,-1.1635,-1.164,-1.1629,-1.1624,-1.162,-1.1618,-1.1614,-1.1609,-1.1662,-1.1662,-1.1662,0,0,-1.1475,-1.1492,-1.1494,-1.1512,-1.1525,-1.1528,-1.1556,-1.1559,-1.1561,-1.1594,-1.1595,-1.1608,-1.1625,-1.1621,-1.162,-1.163,-1.1605,-1.1618,-1.1615,-1.1615,-1.1611,-1.1606,-1.1602,-1.1661,-1.1661,-1.1661,0,0,-1.1442,-1.1457,-1.1453,-1.1465,-1.1484,-1.1501,-1.15,-1.1524,-1.1533,-1.1535,-1.1559,-1.1563,-1.1574,-1.1585,-1.1592,-1.1563,-1.1581,-1.1565,-1.1541,-1.1536,-1.1532,-1.1528,-1.1517,-1.1513,-1.1563,-1.1563,-1.1563,0,-1.1416,-1.1423,-1.1449,-1.145,-1.1457,-1.1487,-1.1483,-1.1493,-1.1513,-1.1517,-1.1529,-1.1544,-1.1557,-1.1555,-1.1548,-1.1554,-1.1552,-1.1562,-1.1531,-1.1527,-1.1524,-1.1514,-1.1509,-1.1561,-1.1561,-1.1561,-1.1562,0,-1.139,-1.1394,-1.1389,-1.1408,-1.1414,-1.1413,-1.1438,-1.1441,-1.1457,-1.1473,-1.1474,-1.1491,-1.1502,-1.1504,-1.1519,-1.1504,-1.1509,-1.1526,-1.1546,-1.1517,-1.1507,-1.1503,-1.1558,-1.1559,-1.1559,-1.156,0,0,-1.1333,-1.1366,-1.1364,-1.1372,-1.1395,-1.1399,-1.1398,-1.141,-1.1412,-1.1425,-1.1424,-1.1433,-1.1448,-1.1456,-1.1473,-1.1469,-1.1444,-1.1486,-1.1487,-1.1476,-1.1427,-1.1413,-1.1408,-1.1456,-1.1456,-1.1455,-1.1425,0,-1.1304,-1.1306,-1.1329,-1.1323,-1.1327,-1.1355,-1.1355,-1.1368,-1.1383,-1.1388,-1.1404,-1.1409,-1.1429,-1.1434,-1.1431,-1.1448,-1.1434,-1.145,-1.1455,-1.1455,-1.1449,-1.1404,-1.139,-1.136,-1.1421,-1.1421,-1.142,0,-1.127,-1.1281,-1.1276,-1.1298,-1.1301,-1.13,-1.1312,-1.1317,-1.1332,-1.1343,-1.1351,-1.1371,-1.1371,-1.1391,-1.1392,-1.1402,-1.1406,-1.1414,-1.1413,-1.1414,-1.1435,-1.1402,-1.1352,-1.1347,-1.1415,-1.1415,-1.1416,0,-1.1228,-1.1241,-1.124,-1.1246,-1.1273,-1.1271,-1.1282,-1.1299,-1.1304,-1.1314,-1.1318,-1.1328,-1.1333,-1.134,-1.1362,-1.1374,-1.1359,-1.1381,-1.1367,-1.1366,-1.1362,-1.1362,-1.1311,-1.1366,-1.1366,-1.1366,-1.1366,0,-1.1192,-1.1188,-1.1221,-1.122,-1.1216,-1.1242,-1.1237,-1.125,-1.1264,-1.1266,-1.1291,-1.1292,-1.1321,-1.1325,-1.1341,-1.1339,-1.1341,-1.1349,-1.1353,-1.1346,-1.1345,-1.1348,-1.135,-1.1365,-1.1365,-1.1365,-1.1366,0,-1.1144,-1.1166,-1.1166,-1.1191,-1.1197,-1.1193,-1.1214,-1.1213,-1.1229,-1.1231,-1.1233,-1.1258,-1.1264,-1.1286,-1.1297,-1.1308,-1.1299,-1.1309,-1.1294,-1.1297,-1.1281,-1.1281,-1.1229,-1.1223,-1.1283,-1.1282,-1.1282,0,-1.1119,-1.1116,-1.1141,-1.1144,-1.1153,-1.1158,-1.1163,-1.1189,-1.1193,-1.1211,-1.1208,-1.1216,-1.1223,-1.1231,-1.125,-1.1258,-1.1267,-1.1248,-1.1268,-1.1261,-1.1265,-1.1264,-1.1264,-1.1243,-1.1242,-1.1242,-1.1241,0,-1.1072,-1.1083,-1.109,-1.1101,-1.1107,-1.1116,-1.1127,-1.1128,-1.1157,-1.116,-1.1166,-1.1172,-1.1184,-1.119,-1.1202,-1.1213,-1.1231,-1.1235,-1.1232,-1.1224,-1.1215,-1.1218,-1.1281,-1.1236,-1.1236,-1.1237,-1.1237,-1.1237,-1.1034,-1.1033,-1.1049,-1.1056,-1.1067,-1.1077,-1.1077,-1.1093,-1.1099,-1.111,-1.1125,-1.1129,-1.1144,-1.1162,-1.1171,-1.1174,-1.1184,-1.118,-1.1179,-1.1177,-1.1173,-1.1215,-1.1176,-1.1176,-1.1176,-1.1177,-1.1177,0,-1.0988,-1.1,-1.1006,-1.102,-1.1025,-1.1043,-1.1056,-1.1059,-1.1062,-1.1075,-1.1082,-1.1088,-1.1095,-1.1114,-1.1123,-1.1121,-1.113,-1.1123,-1.1122,-1.1124,-1.1164,-1.1165,-1.1116,-1.1116,-1.1116,-1.1116,-1.1116,-1.1116,-1.0964,-1.0962,-1.0975,-1.0978,-1.099,-1.0995,-1.1,-1.1009,-1.1019,-1.1025,-1.1031,-1.1044,-1.1059,-1.1069,-1.1075,-1.1081,-1.1082,-1.1072,-1.108,-1.1116,-1.1122,-1.1127,-1.1128,-1.1072,-1.1072,-1.104,-1.104,-1.1039]}]]